Location: Pasadena, ca
(34.1243°N, 118.1037°W)
Time: 11:08:12
(UTC-08:00)

Vanguard 3 - Visible Passes

Search period start: 14 December 2017 00:00
Search period end: 24 December 2017 00:00
Orbit: 509 x 3263 km, 33.3° (Epoch: 13 December)

Date Brightness Start Highest point End Pass type
(mag) Time Alt. Az. Time Alt. Az. Time Alt. Az.
14 Dec 9.9 18:15:45 10° WSW 18:18:56 16° SSW 18:23:01 10° SSE visible
20 Dec 11.3 06:24:57 10° S 06:32:54 18° SSE 06:38:50 10° ESE visible
21 Dec 11.6 05:13:42 10° SSE 05:17:44 11° SSE 05:21:19 10° SE visible
22 Dec 11.1 06:06:23 10° SSW 06:17:07 24° SSE 06:24:34 10° ESE visible
23 Dec 11.4 04:53:10 10° S 05:01:49 16° SSE 05:08:42 10° ESE visible
